Location: Altenhof
(50.2418°N, 10.8789°E)
Time: 15:30:20
(UTC+00:00)

Cosmos 1743 Rocket - Pass Details

Date: 18 February 2020
Orbit: 605 x 632 km, 82.6° (Epoch: 07 April)

Event Time Altitude Azimuth Distance (km) Brightness Sun altitude
Rises 03:45:23 0° 353° (N) 2,878 7.1 -25.8°
Reaches altitude 10° 03:47:40 10° 358° (N) 1,968 6.2 -25.4°
Maximum altitude 03:51:55 52° 76° (ENE) 754 4.3 -24.7°
Drops below altitude 10° 03:56:09 10° 154° (SSE) 1,953 6.3 -24.1°
Sets 03:58:24 0° 159° (SSE) 2,853 7.1 -23.7°
